Simultaneous Nadir Overpasses (SNOs) Predictions

Prediction of SNOs between GOES-14 and AQUA Satellite Orbit:

Table of predicted SNOs for the next 14.0 days since TLE Epoch: 5/1/2021
Index Date Time (GOES-14) GOES-14 Lat,Lon AQUA Lat,Lon Distance(km) Time Diff (sec)
1 05/02/2021 20:17:43 -0.15,-104.31 0.58,-100.98 379.04 80
2 05/03/2021 08:38:57 0.14,-104.21 0.58,-106.13 218.87 80
3 05/05/2021 08:29:25 0.15,-104.21 -0.06,-103.17 117.74 80
4 05/05/2021 20:50:50 -0.13,-104.33 -1.01,-108.37 459.52 80
5 05/07/2021 08:17:13 0.15,-104.21 -0.70,-100.21 454.91 80
6 05/07/2021 20:38:38 -0.14,-104.33 -0.36,-105.41 122.65 80
7 05/09/2021 20:23:45 -0.14,-104.33 0.23,-102.44 214.32 80
8 05/10/2021 08:45:00 0.13,-104.20 0.86,-107.60 386.36 80
9 05/12/2021 08:32:48 0.13,-104.21 0.21,-104.64 49.12 80
10 05/14/2021 08:23:15 0.13,-104.21 -0.39,-101.68 287.84 80
11 05/14/2021 20:44:40 -0.11,-104.36 -0.66,-106.88 287.11 80
